ROMMA est une association bénévole à but non lucratif. Votre soutien est indispensable : ADHERER à ROMMA ou FAIRE un DON

Chambon - (38, Isère)

Oisans (2460 m)   Longitude: 06° 10' 42" E   Latitude: 45° 01' 32" N Station partenaire n°803
 

Détail journalier du     <<     >>

Température Humidité Vent Dir Rafale Dir. rafale Neige 1 Neige 2
Heure (°C) (%) (km/h) (km/h) (cm) (cm)
01:00 11.97014S33SO00
02:00 11.67314S38S00
03:00 11.67516S43SO00
04:00 11.18021SO46SO00
05:00 10.48119SO33SO00
06:00 8.7948SO26SO00
07:00 7.69911OSO34OSO00
08:00 9.28617SO33SO30
09:00 8.68915SO33SO30
10:00 9.78017SSO47OSO21
11:00 10.37028SSO68SSO30
12:00 12.36720SSO53SSO21
13:00 12.47514SSO39SSO01
14:00 13.6729SSO26SO00
15:00 13.27410SO26OSO11
16:00 13.67611OSO25OSO01
17:00 14.56614SO31OSO01
18:00 14.76313SSO35SSO20
19:00 14.76115SSO40SSO10
20:00 12.86619SSO38OSO40
21:00 11.97219SO39OSO40
22:00 11.47217SSO34SO50
23:00 11.07715SSO31SO40
minuit 11.37416SSO41SSO40

Graphique du 19-08-2019

 

Serveur OMMA